Weather in Industriya

Russia / Kemerovo Oblast     53°49′48″N   86°43′28″E
temp.,
°C
wind,
m/s
gust,
m/s
humid.,
%
clouds,
%
prec.,
mm/h
press.,
hPa
HPBL,
m
10 may, mon
mon1001:00+4nne512662 0.0 1019419
04:00+3nne411821 0.0 1020297
07:00+3ne36774 0.0 1021203
10:00+9ene56521 0.0 1020853
13:00+13ene67360 0.0 10191461
16:00+15ene57365 0.0 10171919
19:00+14ene79443 0.0 10161069
22:00+8ene611560 0.0 1017375
11 may, tue
tue1101:00+5nne4967100 0.0 1015180
04:00+5nne3869100 0.0 1014164
07:00+6nne3771100 0.0 1014191
10:00+11ne5647100 0.0 1013927
13:00+15ene4537100 0.0 10131661
16:00+17e343315 0.0 10122135
19:00+16e234129 0.0 1013823
22:00+11nne355446 0.0 101479
12 may, wed
wed1201:00+8n336079 0.0 101547
04:00+7n34675 0.0 101563
07:00+8n36711 0.0 1016184
10:00+14ne45505 0.0 1015770
13:00+17nne343886 0.0 10152702
16:00+18nne553258 0.0 10142633
19:00+16ne684379 0.0 1015876
22:00+11n4105411 0.0 1017203
13 may, thu
thu1301:00+8n36665 0.0 101899
04:00+7nne22702 0.0 101814
07:00+9ene116542 0.0 101869
10:00+14ese2252100 0.0 1018634
13:00+17ne223730 0.0 10162205
16:00+17ne3235100 0.0 10151699
19:00+17nne1141100 0.0 1015346
22:00+11w11475 0.0 101610
14 may, fri
fri1401:00+10sw224975 0.0 101511
04:00+10wsw2258100 0.0 101439
07:00+10wsw2666100 0.0 1014176
10:00+12w5967100 0.4 10141361
13:00+13nw896187 1.7 10151578
16:00+13wnw595471 0.3 10161807
19:00+13nnw575598 0.4 10171232
22:00+9nnw495065 0.0 1020317